| time (UTC) | temp C | wind direction | speed KPH | gust KPH | rain 1hr cm | rain 24hr cm | rain mn cm | humidity % | barometer mb |
| 20260508060751 | 13 | 230 | 3.2 | 6.4 | 0.00 | 0.00 | 0.00 | 70 | 1018.3 |
| 20260508055744 | 13 | 219 | 1.6 | 4.8 | 0.00 | 0.00 | 0.00 | 71 | 1018.3 |
| 20260508054738 | 13 | 210 | 1.6 | 3.2 | 0.00 | 0.00 | 0.00 | 71 | 1018.2 |
| 20260508053732 | 13 | 186 | 0.0 | 1.6 | 0.00 | 0.00 | 0.00 | 70 | 1018.3 |
| 20260508052723 | 12 | 206 | 0.0 | 1.6 | 0.00 | 0.00 | 0.00 | 72 | 1018.1 |
| 20260508051716 | 12 | 199 | 0.0 | 0.0 | 0.00 | 0.00 | 0.00 | 72 | 1018.2 |
| 20260508050709 | 11 | 206 | 0.0 | 1.6 | 0.00 | 0.00 | 0.00 | 78 | 1018.1 |
| 20260508045702 | 10 | 205 | 0.0 | 1.6 | 0.00 | 0.00 | 0.00 | 79 | 1018.2 |
| 20260508044653 | 10 | 204 | 0.0 | 0.0 | 0.00 | 0.00 | 0.00 | 84 | 1018.0 |
| 20260508043646 | 8 | 204 | 0.0 | 0.0 | 0.00 | 0.00 | 0.00 | 89 | 1017.9 |
| 20260508042639 | 7 | 208 | 0.0 | 0.0 | 0.00 | 0.00 | 0.00 | 90 | 1017.9 |
| 20260508041632 | 7 | 213 | 0.0 | 3.2 | 0.00 | 0.00 | 0.00 | 89 | 1017.8 |
| 20260508040624 | 7 | 179 | 0.0 | 0.0 | 0.00 | 0.00 | 0.00 | 89 | 1017.9 |
| 20260508035617 | 7 | 173 | 0.0 | 0.0 | 0.00 | 0.00 | 0.00 | 91 | 1017.7 |
| 20260508034611 | 6 | 209 | 0.0 | 3.2 | 0.00 | 0.00 | 0.00 | 91 | 1017.5 |
| 20260508033604 | 6 | 205 | 0.0 | 1.6 | 0.00 | 0.00 | 0.00 | 90 | 1017.6 |
| 20260508032556 | 6 | 209 | 0.0 | 1.6 | 0.00 | 0.00 | 0.00 | 89 | 1017.4 |
| 20260508031549 | 7 | 210 | 0.0 | 1.6 | 0.00 | 0.00 | 0.00 | 89 | 1017.4 |
| 20260508030541 | 7 | 218 | 1.6 | 3.2 | 0.00 | 0.00 | 0.00 | 89 | 1017.5 |
| 20260508025534 | 6 | 206 | 0.0 | 0.0 | 0.00 | 0.00 | 0.00 | 91 | 1017.2 |
| 20260508024527 | 6 | 217 | 1.6 | 3.2 | 0.00 | 0.00 | 0.00 | 91 | 1017.4 |
| 20260508023520 | 6 | 223 | 1.6 | 4.8 | 0.00 | 0.00 | 0.00 | 90 | 1017.4 |
| 20260508022513 | 6 | 228 | 1.6 | 3.2 | 0.00 | 0.00 | 0.00 | 91 | 1017.2 |
| 20260508021504 | 6 | 225 | 1.6 | 3.2 | 0.00 | 0.00 | 0.00 | 90 | 1017.4 |
| 20260508020456 | 7 | 219 | 1.6 | 3.2 | 0.00 | 0.00 | 0.00 | 90 | 1017.3 |
| 20260508015451 | 7 | 225 | 1.6 | 4.8 | 0.00 | 0.00 | 0.00 | 90 | 1017.4 |
| 20260508014444 | 7 | 223 | 0.0 | 3.2 | 0.00 | 0.00 | 0.00 | 89 | 1017.2 |
| 20260508013437 | 7 | 205 | 0.0 | 0.0 | 0.00 | 0.00 | 0.00 | 89 | 1017.1 |
| 20260508012430 | 7 | 208 | 0.0 | 0.0 | 0.00 | 0.00 | 0.00 | 88 | 1017.2 |
| 20260508011422 | 7 | 214 | 0.0 | 3.2 | 0.00 | 0.00 | 0.00 | 88 | 1017.0 |
| 20260508010415 | 7 | 225 | 1.6 | 6.4 | 0.00 | 0.00 | 0.00 | 87 | 1016.9 |
| 20260508005407 | 7 | 210 | 0.0 | 3.2 | 0.00 | 0.00 | 0.00 | 87 | 1016.9 |
| 20260508004400 | 8 | 213 | 0.0 | 3.2 | 0.00 | 0.00 | 0.00 | 86 | 1016.9 |
| 20260508003353 | 8 | 209 | 0.0 | 1.6 | 0.00 | 0.00 | 0.00 | 84 | 1016.8 |
| 20260508002345 | 8 | 208 | 0.0 | 0.0 | 0.00 | 0.00 | 0.00 | 83 | 1016.8 |
| 20260508001337 | 10 | 198 | 0.0 | 0.0 | 0.00 | 0.00 | 0.00 | 81 | 1016.9 |
| 20260508000334 | 10 | 201 | 0.0 | 0.0 | 0.00 | 0.00 | 0.00 | 78 | 1016.7 |
| 20260507235324 | 11 | 207 | 0.0 | 1.6 | 0.00 | 0.00 | 0.00 | 75 | 1016.8 |
| 20260507234317 | 12 | 229 | 3.2 | 6.4 | 0.00 | 0.00 | 0.00 | 73 | 1017.0 |
| 20260507233310 | 12 | 244 | 6.4 | 11.3 | 0.00 | 0.00 | 0.00 | 70 | 1017.2 |
| 20260507232305 | 13 | 242 | 8.0 | 12.9 | 0.00 | 0.00 | 0.00 | 70 | 1016.9 |
| 20260507231255 | 13 | 242 | 8.0 | 12.9 | 0.00 | 0.00 | 0.00 | 69 | 1016.9 |
| 20260507230248 | 13 | 242 | 8.0 | 11.3 | 0.00 | 0.00 | 0.00 | 68 | 1017.1 |
| 20260507225240 | 13 | 246 | 8.0 | 12.9 | 0.00 | 0.00 | 0.00 | 68 | 1016.9 |
| 20260507224233 | 13 | 244 | 9.7 | 12.9 | 0.00 | 0.00 | 0.00 | 68 | 1016.8 |
| 20260507223225 | 13 | 245 | 9.7 | 14.5 | 0.00 | 0.00 | 0.00 | 68 | 1016.7 |
| 20260507222218 | 13 | 241 | 9.7 | 14.5 | 0.00 | 0.00 | 0.00 | 69 | 1016.6 |
| 20260507221212 | 13 | 246 | 9.7 | 12.9 | 0.00 | 0.00 | 0.00 | 69 | 1016.5 |
| 20260507220204 | 13 | 241 | 8.0 | 12.9 | 0.00 | 0.00 | 0.00 | 71 | 1016.5 |
| 20260507215157 | 12 | 243 | 6.4 | 11.3 | 0.00 | 0.00 | 0.18 | 77 | 1016.6 |
| 20260507214149 | 12 | 241 | 6.4 | 9.7 | 0.00 | 0.00 | 0.18 | 76 | 1016.3 |
| 20260507213142 | 13 | 243 | 6.4 | 9.7 | 0.00 | 0.00 | 0.18 | 73 | 1016.1 |
| 20260507212135 | 13 | 239 | 6.4 | 9.7 | 0.00 | 0.00 | 0.18 | 73 | 1016.2 |
| 20260507211127 | 13 | 241 | 6.4 | 9.7 | 0.00 | 0.00 | 0.18 | 73 | 1016.0 |
| 20260507210120 | 13 | 241 | 6.4 | 9.7 | 0.00 | 0.00 | 0.18 | 73 | 1015.8 |
| 20260507205112 | 13 | 239 | 4.8 | 9.7 | 0.00 | 0.00 | 0.18 | 74 | 1016.1 |
| 20260507204105 | 13 | 233 | 3.2 | 4.8 | 0.00 | 0.00 | 0.18 | 73 | 1015.8 |
| 20260507203058 | 13 | 232 | 3.2 | 6.4 | 0.00 | 0.00 | 0.18 | 71 | 1015.8 |
| 20260507202052 | 14 | 237 | 4.8 | 9.7 | 0.00 | 0.00 | 0.18 | 69 | 1015.7 |
| 20260507201045 | 14 | 240 | 6.4 | 9.7 | 0.00 | 0.00 | 0.18 | 68 | 1015.5 |
| 20260507200037 | 15 | 247 | 6.4 | 11.3 | 0.00 | 0.00 | 0.18 | 67 | 1015.8 |
| 20260507195029 | 14 | 242 | 4.8 | 6.4 | 0.00 | 0.00 | 0.18 | 68 | 1015.4 |
| 20260507194023 | 15 | 249 | 6.4 | 11.3 | 0.00 | 0.00 | 0.18 | 67 | 1015.2 |
| 20260507193015 | 15 | 245 | 6.4 | 11.3 | 0.00 | 0.00 | 0.18 | 69 | 1015.2 |
| 20260507192007 | 15 | 245 | 8.0 | 11.3 | 0.00 | 0.00 | 0.18 | 68 | 1015.0 |
| 20260507191000 | 13 | 235 | 4.8 | 9.7 | 0.00 | 0.00 | 0.18 | 76 | 1015.4 |
| 20260507185953 | 13 | 231 | 3.2 | 3.2 | 0.00 | 0.00 | 0.18 | 88 | 1015.3 |
| 20260507184945 | 13 | 213 | 0.0 | 1.6 | 0.00 | 0.00 | 0.18 | 89 | 1014.8 |
| 20260507183938 | 13 | 222 | 1.6 | 3.2 | 0.00 | 0.00 | 0.18 | 87 | 1014.9 |
| 20260507182932 | 13 | 210 | 0.0 | 3.2 | 0.00 | 0.00 | 0.18 | 86 | 1014.6 |
| 20260507181925 | 13 | 222 | 1.6 | 4.8 | 0.00 | 0.00 | 0.18 | 86 | 1014.4 |
| 20260507180917 | 13 | 213 | 0.0 | 3.2 | 0.00 | 0.00 | 0.18 | 86 | 1014.3 |
| 20260507175909 | 14 | 206 | 0.0 | 1.6 | 0.00 | 0.00 | 0.18 | 86 | 1014.0 |
| 20260507174902 | 14 | 210 | 0.0 | 3.2 | 0.00 | 0.00 | 0.18 | 85 | 1013.9 |
| 20260507173855 | 15 | 206 | 0.0 | 3.2 | 0.00 | 0.00 | 0.18 | 84 | 1013.9 |
| 20260507172849 | 15 | 208 | 0.0 | 1.6 | 0.03 | 0.00 | 0.18 | 83 | 1013.6 |
| 20260507171841 | 15 | 209 | 0.0 | 3.2 | 0.03 | 0.00 | 0.18 | 79 | 1013.5 |
| 20260507170833 | 15 | 143 | 1.6 | 4.8 | 0.08 | 0.00 | 0.18 | 77 | 1013.4 |
| 20260507165826 | 15 | 123 | 3.2 | 6.4 | 0.18 | 0.00 | 0.18 | 76 | 1013.2 |
| 20260507164819 | 15 | 150 | 1.6 | 4.8 | 0.18 | 0.00 | 0.18 | 72 | 1013.2 |
| 20260507163813 | 15 | 110 | 3.2 | 6.4 | 0.18 | 0.00 | 0.18 | 73 | 1013.0 |
| 20260507162806 | 16 | 133 | 1.6 | 11.3 | 0.15 | 0.00 | 0.15 | 69 | 1013.0 |
| 20260507161757 | 17 | 134 | 3.2 | 11.3 | 0.15 | 0.00 | 0.15 | 63 | 1013.1 |
| 20260507160749 | 17 | 119 | 1.6 | 6.4 | 0.08 | 0.00 | 0.08 | 59 | 1013.1 |
| 20260507155743 | 18 | 130 | 1.6 | 6.4 | 0.00 | 0.00 | 0.00 | 52 | 1013.0 |
| 20260507154736 | 20 | 144 | 3.2 | 9.7 | 0.00 | 0.00 | 0.00 | 46 | 1012.7 |
| 20260507153729 | 20 | 135 | 1.6 | 6.4 | 0.00 | 0.00 | 0.00 | 43 | 1012.6 |
| 20260507152721 | 20 | 139 | 1.6 | 6.4 | 0.00 | 0.00 | 0.00 | 42 | 1012.7 |
| 20260507151713 | 21 | 153 | 1.6 | 3.2 | 0.00 | 0.00 | 0.00 | 42 | 1012.6 |
| 20260507150706 | 21 | 199 | 1.6 | 6.4 | 0.00 | 0.00 | 0.00 | 39 | 1012.7 |
| 20260507145659 | 21 | 222 | 3.2 | 6.4 | 0.00 | 0.00 | 0.00 | 38 | 1012.6 |
| 20260507144653 | 21 | 229 | 4.8 | 9.7 | 0.00 | 0.00 | 0.00 | 38 | 1012.5 |
| 20260507143652 | 21 | 204 | 1.6 | 4.8 | 0.00 | 0.00 | 0.00 | 37 | 1012.5 |
| 20260507142646 | 21 | 228 | 4.8 | 9.7 | 0.00 | 0.00 | 0.00 | 36 | 1012.4 |
| 20260507141639 | 21 | 236 | 8.0 | 17.7 | 0.00 | 0.00 | 0.00 | 38 | 1012.5 |
| 20260507140633 | 22 | 245 | 9.7 | 20.9 | 0.00 | 0.00 | 0.00 | 35 | 1012.4 |
| 20260507135625 | 21 | 246 | 12.9 | 20.9 | 0.00 | 0.00 | 0.00 | 35 | 1012.4 |
| 20260507134617 | 22 | 242 | 12.9 | 20.9 | 0.00 | 0.00 | 0.00 | 34 | 1012.4 |
| 20260507133610 | 24 | 211 | 1.6 | 16.1 | 0.00 | 0.00 | 0.00 | 32 | 1012.3 |
| 20260507132605 | 22 | 244 | 9.7 | 20.9 | 0.00 | 0.00 | 0.00 | 35 | 1012.6 |
| 20260507131557 | 22 | 241 | 9.7 | 24.1 | 0.00 | 0.00 | 0.00 | 35 | 1012.6 |
| 20260507130549 | 22 | 215 | 3.2 | 9.7 | 0.00 | 0.00 | 0.00 | 35 | 1012.7 |
| 20260507125542 | 22 | 209 | 1.6 | 12.9 | 0.00 | 0.00 | 0.00 | 36 | 1012.7 |
| 20260507124535 | 22 | 225 | 3.2 | 12.9 | 0.00 | 0.00 | 0.00 | 37 | 1012.9 |
| 20260507123528 | 21 | 236 | 6.4 | 14.5 | 0.00 | 0.00 | 0.00 | 40 | 1013.1 |
| 20260507122520 | 21 | 233 | 6.4 | 16.1 | 0.00 | 0.00 | 0.00 | 41 | 1013.1 |
| 20260507121512 | 21 | 241 | 8.0 | 16.1 | 0.00 | 0.00 | 0.00 | 40 | 1013.0 |
| 20260507120504 | 23 | 189 | 1.6 | 11.3 | 0.00 | 0.00 | 0.00 | 38 | 1013.1 |
| 20260507115458 | 20 | 222 | 3.2 | 14.5 | 0.00 | 0.00 | 0.00 | 42 | 1013.2 |
| 20260507114450 | 21 | 231 | 8.0 | 17.7 | 0.00 | 0.00 | 0.00 | 44 | 1013.5 |
| 20260507113443 | 20 | 227 | 6.4 | 17.7 | 0.00 | 0.00 | 0.00 | 43 | 1013.3 |
| 20260507112437 | 20 | 208 | 3.2 | 14.5 | 0.00 | 0.00 | 0.00 | 43 | 1013.3 |
| 20260507111428 | 20 | 246 | 11.3 | 20.9 | 0.00 | 0.00 | 0.00 | 44 | 1013.9 |
| 20260507110422 | 20 | 226 | 6.4 | 20.9 | 0.00 | 0.00 | 0.00 | 44 | 1013.7 |
| 20260507105415 | 20 | 227 | 6.4 | 16.1 | 0.00 | 0.00 | 0.00 | 44 | 1013.7 |
| 20260507104407 | 20 | 231 | 8.0 | 17.7 | 0.00 | 0.00 | 0.00 | 43 | 1013.9 |
| 20260507103400 | 20 | 233 | 11.3 | 22.5 | 0.00 | 0.00 | 0.00 | 45 | 1013.9 |
| 20260507102353 | 20 | 240 | 9.7 | 24.1 | 0.00 | 0.00 | 0.00 | 45 | 1013.9 |
| 20260507101345 | 20 | 234 | 6.4 | 16.1 | 0.00 | 0.00 | 0.00 | 44 | 1014.0 |
| 20260507100338 | 20 | 249 | 11.3 | 22.5 | 0.00 | 0.00 | 0.00 | 45 | 1014.0 |
| 20260507095331 | 18 | 239 | 11.3 | 20.9 | 0.00 | 0.00 | 0.00 | 44 | 1014.0 |
| 20260507094325 | 18 | 244 | 12.9 | 22.5 | 0.00 | 0.00 | 0.00 | 48 | 1013.9 |
| 20260507093317 | 19 | 243 | 9.7 | 22.5 | 0.00 | 0.00 | 0.00 | 48 | 1013.9 |
| 20260507092310 | 18 | 247 | 9.7 | 22.5 | 0.00 | 0.00 | 0.00 | 49 | 1013.9 |
| 20260507091301 | 17 | 247 | 11.3 | 20.9 | 0.00 | 0.00 | 0.00 | 50 | 1013.7 |
| 20260507090255 | 17 | 246 | 12.9 | 22.5 | 0.00 | 0.00 | 0.00 | 51 | 1013.9 |
| 20260507085248 | 17 | 244 | 11.3 | 17.7 | 0.00 | 0.00 | 0.00 | 52 | 1013.5 |
| 20260507084241 | 17 | 248 | 11.3 | 20.9 | 0.00 | 0.00 | 0.00 | 52 | 1013.6 |
| 20260507083241 | 16 | 241 | 9.7 | 20.9 | 0.00 | 0.00 | 0.00 | 54 | 1013.5 |
| 20260507082234 | 16 | 241 | 8.0 | 16.1 | 0.00 | 0.00 | 0.00 | 56 | 1013.4 |
| 20260507081227 | 16 | 239 | 8.0 | 14.5 | 0.00 | 0.00 | 0.00 | 55 | 1013.4 |
| 20260507080221 | 16 | 247 | 12.9 | 22.5 | 0.00 | 0.00 | 0.00 | 56 | 1013.5 |
| 20260507075214 | 16 | 249 | 12.9 | 20.9 | 0.00 | 0.00 | 0.00 | 55 | 1013.3 |
| 20260507074207 | 16 | 245 | 11.3 | 17.7 | 0.00 | 0.00 | 0.00 | 57 | 1013.1 |
| 20260507073158 | 16 | 248 | 14.5 | 22.5 | 0.00 | 0.00 | 0.00 | 59 | 1013.2 |
| 20260507072151 | 16 | 243 | 11.3 | 22.5 | 0.00 | 0.00 | 0.00 | 59 | 1013.3 |
| 20260507071151 | 16 | 251 | 9.7 | 20.9 | 0.00 | 0.00 | 0.00 | 59 | 1013.2 |
| 20260507070146 | 15 | 241 | 9.7 | 16.1 | 0.00 | 0.00 | 0.00 | 61 | 1013.3 |
| 20260507065138 | 15 | 245 | 12.9 | 25.7 | 0.00 | 0.00 | 0.00 | 63 | 1013.4 |
| 20260507064131 | 15 | 248 | 14.5 | 24.1 | 0.00 | 0.00 | 0.00 | 63 | 1013.2 |
| 20260507063125 | 14 | 246 | 12.9 | 24.1 | 0.00 | 0.00 | 0.00 | 64 | 1013.2 |
| 20260507062117 | 14 | 241 | 9.7 | 24.1 | 0.00 | 0.00 | 0.00 | 66 | 1013.0 |